Greenville, MS

8:37 AM CST on December 12, 2017 (GMT -0600)
Mid Delta Regional

Weather History for KGLH - March, 2014

Change the Weather History Date:

Thursday, March 20, 2014

  Actual Average Record
Temperature  
Mean Temperature 54 °F 56 °F  
Max Temperature 69 °F 66 °F 87 °F (1932)
Min Temperature 38 °F 45 °F 20 °F (1965)
Degree Days  
Heating Degree Days 11 10  
Month to date heating degree days 329 242  
Since 1 July heating degree days 2936 2551  
Cooling Degree Days 0 1  
Month to date cooling degree days 0 6  
Year to date cooling degree days 0 11  
Growing Degree Days 4 (Base 50)    
Moisture  
Dew Point 33 °F    
Average Humidity 51    
Maximum Humidity 85    
Minimum Humidity 17    
Precipitation  
Precipitation 0.00 in 0.15 in 2.82 in (1980)
Month to date precipitation 1.44 2.64  
Year to date precipitation 5.74 12.63  
Sea Level Pressure  
Sea Level Pressure 30.17 in    
Wind  
Wind Speed 4 mph (NNE)    
Max Wind Speed 13 mph    
Max Gust Speed 16 mph    
Visibility 10 miles    
Events      
T = Trace of Precipitation, MM = Missing Value Source: NWS Daily Summary

Daily Weather History Graph

Daily Weather History Graph

Search for Another Location

Airport or City:

Trip Planner

Search our weather history database for the weather conditions in past years. The results will help you decide how hot, cold, wet, or windy it might be!

Date:

Astronomy

Mar. 20, 2014 Rise Set
Actual Time 7:07 AM CDT 7:15 PM CDT
Civil Twilight 6:42 AM CDT 7:40 PM CDT
Nautical Twilight 6:13 AM CDT 8:09 PM CDT
Astronomical Twilight 5:44 AM CDT 8:38 PM CDT
Moon 11:23 PM CDT (3/20) 9:25 AM CDT (3/20)
Length of Visible Light 12h 57m
Length of Day
12h 07m
Waning Gibbous, 84% of the Moon is Illuminated
Mar 20
Waning Gibbous
Mar 23
Last Quarter
Mar 30
New
Apr 7
First Quarter
Apr 15
Full

Hourly Weather History & Observations

Time (CDT) Temp. Windchill Dew Point Humidity Pressure Visibility Wind Dir Wind Speed Gust Speed Precip Events Conditions
12:53 AM 48.0 °F - 41.0 °F 77% 30.17 in 9.0 mi North 9.2 mph - N/A   Clear
1:53 AM 46.0 °F 41.4 °F 39.9 °F 79% 30.18 in 10.0 mi North 9.2 mph - N/A   Clear
2:53 AM 45.0 °F 40.6 °F 39.0 °F 80% 30.18 in 9.0 mi North 8.1 mph - N/A   Clear
3:53 AM 44.1 °F 40.1 °F 37.0 °F 76% 30.19 in 10.0 mi North 6.9 mph - N/A   Clear
4:53 AM 42.1 °F 38.4 °F 37.0 °F 82% 30.19 in 9.0 mi North 5.8 mph - N/A   Clear
5:53 AM 39.9 °F 35.8 °F 36.0 °F 86% 30.21 in 8.0 mi NNE 5.8 mph - N/A   Clear
6:53 AM 41.0 °F 39.0 °F 36.0 °F 82% 30.23 in 9.0 mi NE 3.5 mph - N/A   Clear
7:53 AM 39.0 °F - 34.0 °F 82% 30.23 in 8.0 mi Calm Calm - N/A   Clear
8:53 AM 50.0 °F - 37.0 °F 61% 30.24 in 9.0 mi ENE 5.8 mph - N/A   Clear
9:53 AM 55.0 °F - 34.0 °F 45% 30.25 in 10.0 mi ENE 12.7 mph - N/A   Clear
10:53 AM 57.9 °F - 33.1 °F 39% 30.25 in 10.0 mi East 9.2 mph - N/A   Clear
11:53 AM 61.0 °F - 33.1 °F 35% 30.24 in 10.0 mi NNE 5.8 mph - N/A   Clear
12:53 PM 62.1 °F - 32.0 °F 32% 30.22 in 10.0 mi ENE 6.9 mph - N/A   Clear
1:53 PM 64.0 °F - 30.0 °F 28% 30.19 in 7.0 mi West 4.6 mph - N/A   Clear
2:53 PM 64.9 °F - 28.9 °F 26% 30.16 in 10.0 mi Calm Calm - N/A   Clear
3:53 PM 66.9 °F - 24.1 °F 20% 30.14 in 10.0 mi Variable 4.6 mph - N/A   Clear
4:53 PM 68.0 °F - 23.0 °F 18% 30.12 in 10.0 mi NW 3.5 mph - N/A   Clear
5:53 PM 66.0 °F - 23.0 °F 20% 30.11 in 10.0 mi Calm Calm - N/A   Clear
6:53 PM 62.1 °F - 32.0 °F 32% 30.10 in 10.0 mi South 3.5 mph - N/A   Clear
7:53 PM 55.0 °F - 33.1 °F 43% 30.10 in 10.0 mi SE 5.8 mph - N/A   Clear
8:53 PM 54.0 °F - 30.0 °F 40% 30.11 in 10.0 mi Calm Calm - N/A   Clear
9:53 PM 51.1 °F - 30.9 °F 46% 30.11 in 10.0 mi Calm Calm - N/A   Clear
10:53 PM 46.9 °F - 34.0 °F 61% 30.10 in 10.0 mi Calm Calm - N/A   Clear
11:53 PM 45.0 °F - 34.0 °F 65% 30.10 in 10.0 mi Calm Calm - N/A   Clear